Giddings, TX

1:46 AM CDT on August 22, 2017 (GMT -0500)
Giddings

Weather History for KGYB - October, 2013

Change the Weather History Date:

Thursday, October 24, 2013

  Actual Average (KCLL) Record (KCLL)
Temperature  
Mean Temperature 64 °F -  
Max Temperature 80 °F 77 °F 93 °F (2001)
Min Temperature 49 °F 57 °F 36 °F (1917)
Growing Degree Days 14 (Base 50)    
Moisture  
Dew Point 50 °F    
Average Humidity 66    
Maximum Humidity 95    
Minimum Humidity 30    
Precipitation  
Precipitation 0.00 in - - ()
Sea Level Pressure  
Sea Level Pressure 30.22 in    
Wind  
Wind Speed 1 mph (South)    
Max Wind Speed 7 mph    
Max Gust Speed -    
Visibility 10 miles    
Events      
Averages and records for this station are not official NWS values.
T = Trace of Precipitation, MM = Missing Value Source: NWS Daily Summary

Daily Weather History Graph

Daily Weather History Graph

Search for Another Location

Airport or City:

Trip Planner

Search our weather history database for the weather conditions in past years. The results will help you decide how hot, cold, wet, or windy it might be!

Date:

Astronomy

Oct. 24, 2013 Rise Set
Actual Time 7:36 AM CDT 6:47 PM CDT
Civil Twilight 7:11 AM CDT 7:11 PM CDT
Nautical Twilight 6:43 AM CDT 7:39 PM CDT
Astronomical Twilight 6:15 AM CDT 8:07 PM CDT
Moon 11:21 PM CDT (10/24) 12:28 PM CDT (10/24)
Length of Visible Light 11h 59m
Length of Day
11h 11m
Waning Gibbous, 71% of the Moon is Illuminated
Oct 24
Waning Gibbous
Oct 26
Last Quarter
Nov 3
New
Nov 9
First Quarter
Nov 17
Full

Hourly Weather History & Observations

Time (CDT) Temp. Dew Point Humidity Pressure Visibility Wind Dir Wind Speed Gust Speed Precip Events Conditions
12:15 AM 54.7 °F 50.2 °F 85% 30.17 in 10.0 mi Calm Calm - N/A   Clear
12:35 AM 53.6 °F 49.8 °F 87% 30.17 in 10.0 mi Calm Calm - N/A   Clear
12:55 AM 54.1 °F 50.2 °F 86% 30.17 in 10.0 mi Calm Calm - N/A   Clear
1:15 AM 53.6 °F 50.7 °F 90% 30.17 in 10.0 mi Calm Calm - N/A   Clear
1:35 AM 53.6 °F 50.9 °F 91% 30.17 in 10.0 mi Calm Calm - N/A   Clear
1:55 AM 52.7 °F 50.4 °F 92% 30.17 in 10.0 mi Calm Calm - N/A   Clear
2:15 AM 53.2 °F 50.9 °F 92% 30.17 in 10.0 mi Calm Calm - N/A   Clear
2:35 AM 55.0 °F 49.3 °F 81% 30.18 in 10.0 mi Calm Calm - N/A   Clear
2:55 AM 52.5 °F 49.5 °F 89% 30.17 in 10.0 mi Calm Calm - N/A   Clear
3:15 AM 53.2 °F 49.6 °F 88% 30.17 in 10.0 mi Calm Calm - N/A   Clear
3:35 AM 52.3 °F 49.1 °F 89% 30.17 in 10.0 mi Calm Calm - N/A   Clear
3:55 AM 51.6 °F 49.1 °F 91% 30.17 in 10.0 mi Calm Calm - N/A   Clear
4:15 AM 52.7 °F 49.5 °F 89% 30.17 in 10.0 mi Calm Calm - N/A   Clear
4:35 AM 51.1 °F 48.6 °F 91% 30.17 in 10.0 mi Calm Calm - N/A   Clear
4:55 AM 51.4 °F 48.4 °F 89% 30.17 in 10.0 mi Calm Calm - N/A   Clear
5:15 AM 50.9 °F 48.4 °F 91% 30.17 in 10.0 mi Calm Calm - N/A   Clear
5:35 AM 52.2 °F 49.3 °F 90% 30.18 in 10.0 mi Calm Calm - N/A   Clear
5:55 AM 50.9 °F 48.2 °F 90% 30.18 in 10.0 mi Calm Calm - N/A   Clear
6:15 AM 50.4 °F 48.2 °F 92% 30.19 in 10.0 mi Calm Calm - N/A   Clear
6:35 AM 50.2 °F 48.4 °F 94% 30.19 in 10.0 mi Calm Calm - N/A   Clear
6:55 AM 50.0 °F 47.8 °F 92% 30.20 in 10.0 mi Calm Calm - N/A   Clear
7:15 AM 50.0 °F 48.0 °F 93% 30.20 in 10.0 mi Calm Calm - N/A   Clear
7:35 AM 49.8 °F 48.4 °F 95% 30.21 in 10.0 mi Calm Calm - N/A   Clear
7:55 AM 50.0 °F 48.6 °F 95% 30.22 in 10.0 mi Calm Calm - N/A   Clear
8:15 AM 50.9 °F 49.3 °F 94% 30.23 in 10.0 mi Calm Calm - N/A   Clear
8:35 AM 54.3 °F 52.5 °F 94% 30.23 in 10.0 mi Calm Calm - N/A   Clear
8:55 AM 56.7 °F 52.7 °F 87% 30.24 in 10.0 mi Calm Calm - N/A   Clear
9:15 AM 59.7 °F 53.4 °F 80% 30.25 in 10.0 mi Calm Calm - N/A   Clear
9:35 AM 63.9 °F 52.2 °F 66% 30.26 in 10.0 mi Calm Calm - N/A   Clear
9:55 AM 67.5 °F 50.4 °F 54% 30.27 in 10.0 mi Calm Calm - N/A   Clear
10:15 AM 69.6 °F 48.7 °F 47% 30.27 in 10.0 mi WSW 4.6 mph - N/A   Clear
10:35 AM 71.1 °F 49.1 °F 46% 30.27 in 10.0 mi West 6.9 mph - N/A   Clear
10:55 AM 72.7 °F 50.0 °F 45% 30.28 in 10.0 mi West 6.9 mph - N/A   Clear
11:15 AM 74.3 °F 51.1 °F 44% 30.28 in 10.0 mi WSW 5.8 mph - N/A   Clear
11:35 AM 73.8 °F 50.4 °F 44% 30.28 in 10.0 mi SW 5.8 mph - N/A   Clear
11:55 AM 75.9 °F 49.6 °F 40% 30.28 in 10.0 mi SSW 5.8 mph - N/A   Clear
12:15 PM 76.1 °F 50.2 °F 40% 30.27 in 10.0 mi SW 4.6 mph - N/A   Clear
12:35 PM 77.0 °F 49.5 °F 38% 30.26 in 10.0 mi SW 4.6 mph - N/A   Clear
12:55 PM 77.9 °F 48.6 °F 36% 30.26 in 10.0 mi South 3.5 mph - N/A   Clear
1:15 PM 77.9 °F 48.6 °F 36% 30.25 in 10.0 mi Calm Calm - N/A   Clear
1:35 PM 78.4 °F 50.0 °F 37% 30.24 in 10.0 mi Calm Calm - N/A   Clear
1:55 PM 79.0 °F 48.2 °F 34% 30.23 in 10.0 mi SSE 5.8 mph - N/A   Clear
2:15 PM 78.8 °F 45.3 °F 31% 30.23 in 10.0 mi Calm Calm - N/A   Clear
2:35 PM 79.7 °F 49.5 °F 35% 30.22 in 10.0 mi East 3.5 mph - N/A   Clear
2:55 PM 79.5 °F 47.5 °F 32% 30.21 in 10.0 mi Calm Calm - N/A   Clear
3:15 PM 80.1 °F 49.8 °F 35% 30.20 in 10.0 mi East 3.5 mph - N/A   Clear
3:35 PM 80.1 °F 47.7 °F 32% 30.20 in 10.0 mi SE 4.6 mph - N/A   Clear
3:55 PM 79.9 °F 46.4 °F 31% 30.20 in 10.0 mi Calm Calm - N/A   Clear
4:15 PM 79.7 °F 45.9 °F 30% 30.20 in 10.0 mi Calm Calm - N/A   Clear
4:35 PM 80.1 °F 47.3 °F 32% 30.20 in 10.0 mi East 4.6 mph - N/A   Clear
4:55 PM 79.5 °F 46.6 °F 31% 30.20 in 10.0 mi East 3.5 mph - N/A   Clear
5:15 PM 79.3 °F 47.3 °F 32% 30.20 in 10.0 mi East 3.5 mph - N/A   Clear
5:35 PM 78.8 °F 47.7 °F 33% 30.20 in 10.0 mi ESE 4.6 mph - N/A   Clear
5:55 PM 77.5 °F 47.5 °F 35% 30.19 in 10.0 mi SE 3.5 mph - N/A   Clear
6:15 PM 76.6 °F 47.5 °F 36% 30.20 in 10.0 mi Calm Calm - N/A   Clear
6:35 PM 75.2 °F 47.7 °F 38% 30.20 in 10.0 mi Calm Calm - N/A   Clear
6:55 PM 70.2 °F 52.3 °F 53% 30.20 in 10.0 mi Calm Calm - N/A   Clear
7:15 PM 66.9 °F 53.8 °F 63% 30.21 in 10.0 mi Calm Calm - N/A   Clear
7:35 PM 64.4 °F 53.8 °F 68% 30.21 in 10.0 mi Calm Calm - N/A   Clear
7:55 PM 63.5 °F 52.9 °F 68% 30.22 in 10.0 mi Calm Calm - N/A   Clear
8:15 PM 66.7 °F 52.2 °F 59% 30.23 in 10.0 mi Calm Calm - N/A   Clear
8:35 PM 62.2 °F 53.4 °F 73% 30.23 in 10.0 mi Calm Calm - N/A   Clear
8:55 PM 61.5 °F 53.1 °F 74% 30.24 in 10.0 mi Calm Calm - N/A   Clear
9:15 PM 62.4 °F 53.2 °F 72% 30.25 in 10.0 mi Calm Calm - N/A   Clear
9:35 PM 61.3 °F 53.6 °F 76% 30.25 in 10.0 mi Calm Calm - N/A   Clear
9:55 PM 60.8 °F 53.2 °F 76% 30.25 in 10.0 mi Calm Calm - N/A   Clear
10:15 PM 60.3 °F 53.1 °F 77% 30.26 in 10.0 mi Calm Calm - N/A   Clear
10:35 PM 60.1 °F 52.7 °F 77% 30.26 in 10.0 mi Calm Calm - N/A   Clear
10:55 PM 59.5 °F 53.1 °F 79% 30.27 in 10.0 mi Calm Calm - N/A   Clear
11:15 PM 59.0 °F 52.7 °F 80% 30.27 in 10.0 mi Calm Calm - N/A   Clear
11:35 PM 58.6 °F 52.7 °F 81% 30.27 in 10.0 mi Calm Calm - N/A   Clear
11:55 PM 58.1 °F 52.7 °F 82% 30.27 in 10.0 mi Calm Calm - N/A   Clear